Weather History for Asheville, NC

Change the Weather History Date:

Monday, November 19, 2012

  Actual Average Record
Temperature  
Mean Temperature 46 °F 46 °F  
Max Temperature 60 °F 58 °F 75 °F (1894)
Min Temperature 32 °F 35 °F 13 °F (1903)
Degree Days  
Heating Degree Days 19 19  
Month to date heating degree days 361 305  
Since 1 July heating degree days 673 640  
Cooling Degree Days 0 0  
Month to date cooling degree days 0 0  
Year to date cooling degree days 1022 862  
Moisture  
Dew Point 39 °F    
Average Humidity 80    
Maximum Humidity 100    
Minimum Humidity 60    
Precipitation  
Precipitation 0.00 in 0.13 in 1.70 in (2003)
Month to date precipitation 0.85 2.15  
Year to date precipitation 40.28 40.48  
Snow  
Snow 0.00 in 0.00 in 2.00 in (2000)
Month to date snowfall 0.0 0.0  
Since 1 July snowfall 0.0 0.0  
Since 1 September snowfall 0.0 0.0  
Snow Depth 0.00 in    
Sea Level Pressure  
Sea Level Pressure 30.30 in    
Wind  
Wind Speed 2 mph (NW)    
Max Wind Speed 7 mph    
Max Gust Speed 10 mph    
Visibility 8 miles    
Events Fog    
T = Trace of Precipitation, MM = Missing Value Source: NWS Daily Summary

Daily Weather History Graph

Daily Weather History Graph

Search for Another Location

Airport:

Trip Planner

Search our weather history database for the weather conditions in past years. The results will help you decide how hot, cold, wet, or windy it might be!

Date:

Astronomy

Nov. 19, 2012 Rise Set
Actual Time 7:09 AM EST 5:21 PM EST
Civil Twilight 6:42 AM EST 5:48 PM EST
Nautical Twilight 6:11 AM EST 6:19 PM EST
Astronomical Twilight 5:41 AM EST 6:49 PM EST
Moon 12:16 PM EST (11/19) 11:41 PM EST (11/19)
Length of Visible Light 11h 05m
Length of Day
10h 11m
Waxing Crescent, 40% of the Moon is Illuminated
Nov 19
Waxing Crescent
Nov 20
First Quarter
Nov 28
Full
Dec 6
Last Quarter
Dec 13
New

Hourly Weather History & Observations

Time (EST) Temp. Windchill Dew Point Humidity Pressure Visibility Wind Dir Wind Speed Gust Speed Precip Events Conditions
12:54 AM 35.1 °F - 33.1 °F 92% 30.36 in 10.0 mi Calm Calm - N/A   Clear
1:54 AM 34.0 °F - 32.0 °F 92% 30.36 in 10.0 mi Calm Calm - N/A   Clear
2:21 AM 32.0 °F - 30.2 °F 93% 30.36 in 9.0 mi Calm Calm - N/A   Scattered Clouds
2:30 AM 32.0 °F - 30.2 °F 93% 30.36 in 10.0 mi Calm Calm - N/A   Mostly Cloudy
2:54 AM 34.0 °F 31.0 °F 33.1 °F 96% 30.36 in 7.0 mi NW 3.5 mph - N/A   Overcast
2:59 AM 33.8 °F 30.8 °F 32.0 °F 93% 30.36 in 1.8 mi NW 3.5 mph - N/A   Overcast
3:01 AM 33.8 °F 30.8 °F 32.0 °F 93% 30.36 in 0.8 mi NW 3.5 mph - N/A   Overcast
3:11 AM 33.8 °F 30.8 °F 33.8 °F 100% 30.35 in 0.2 mi North 3.5 mph - N/A Fog Fog
3:16 AM 33.8 °F - 33.8 °F 100% 30.35 in 1.2 mi Calm Calm - N/A   Overcast
3:18 AM 33.8 °F - 33.8 °F 100% 30.35 in 4.0 mi Calm Calm - N/A   Overcast
3:26 AM 33.8 °F 30.8 °F 32.0 °F 93% 30.35 in 10.0 mi North 3.5 mph - N/A   Overcast
3:36 AM 35.6 °F - 33.8 °F 93% 30.34 in 5.0 mi Calm Calm - N/A   Overcast
3:54 AM 35.1 °F - 34.0 °F 96% 30.34 in 10.0 mi Calm Calm - N/A   Overcast
4:07 AM 35.6 °F - 33.8 °F 93% 30.34 in 10.0 mi Calm Calm - N/A   Overcast
4:54 AM 37.0 °F 33.3 °F 36.0 °F 96% 30.34 in 10.0 mi NW 4.6 mph - N/A   Overcast
5:54 AM 39.0 °F - 37.0 °F 93% 30.35 in 10.0 mi Calm Calm - N/A   Overcast
6:42 AM 37.4 °F - 37.4 °F 100% 30.35 in 7.0 mi Calm Calm - N/A   Overcast
6:54 AM 39.0 °F 35.7 °F 37.0 °F 93% 30.35 in 9.0 mi NNW 4.6 mph - N/A   Overcast
7:05 AM 39.2 °F 35.9 °F 37.4 °F 93% 30.34 in 9.0 mi NNW 4.6 mph - N/A   Overcast
7:54 AM 41.0 °F 38.0 °F 37.0 °F 86% 30.35 in 10.0 mi NNW 4.6 mph - N/A   Overcast
8:54 AM 43.0 °F 41.3 °F 39.0 °F 86% 30.36 in 10.0 mi NW 3.5 mph - N/A   Overcast
9:41 AM 44.6 °F 40.7 °F 39.2 °F 81% 30.35 in 10.0 mi NNW 6.9 mph - N/A   Overcast
9:54 AM 46.0 °F 42.5 °F 41.0 °F 83% 30.35 in 10.0 mi NNW 6.9 mph - N/A   Overcast
10:54 AM 51.1 °F - 44.1 °F 77% 30.33 in 10.0 mi North 3.5 mph - N/A   Overcast
11:43 AM 53.6 °F - 44.6 °F 72% 30.31 in 10.0 mi Calm Calm - N/A   Overcast
11:54 AM 55.0 °F - 45.0 °F 69% 30.30 in 10.0 mi Calm Calm - N/A   Overcast
12:54 PM 57.9 °F - 46.9 °F 67% 30.26 in 10.0 mi Calm Calm - N/A   Overcast
1:54 PM 57.9 °F - 46.9 °F 67% 30.24 in 10.0 mi South 3.5 mph - N/A   Clear
2:54 PM 59.0 °F - 46.9 °F 64% 30.22 in 10.0 mi South 3.5 mph - N/A   Clear
3:54 PM 60.1 °F - 46.9 °F 62% 30.21 in 10.0 mi South 3.5 mph - N/A   Clear
4:54 PM 57.0 °F - 46.9 °F 69% 30.22 in 10.0 mi SE 4.6 mph - N/A   Clear
5:54 PM 54.0 °F - 46.0 °F 75% 30.22 in 10.0 mi Calm Calm - N/A   Clear
6:54 PM 48.9 °F - 46.0 °F 90% 30.23 in 10.0 mi WSW 3.5 mph - N/A   Clear
7:54 PM 48.9 °F - 45.0 °F 86% 30.23 in 10.0 mi Calm Calm - N/A   Clear
8:54 PM 46.0 °F - 43.0 °F 89% 30.22 in 10.0 mi Calm Calm - N/A   Clear
9:54 PM 42.8 °F - 41.0 °F 93% 30.23 in 10.0 mi Calm Calm - N/A   Clear
10:54 PM 41.0 °F - 39.0 °F 93% 30.21 in 9.0 mi Calm Calm - N/A   Clear
11:13 PM 41.0 °F - 39.2 °F 93% 30.22 in 1.8 mi Calm Calm - N/A   Clear
11:20 PM 39.2 °F - 39.2 °F 100% 30.22 in 1.0 mi Calm Calm - N/A   Mist
11:24 PM 39.2 °F - 39.2 °F 100% 30.22 in 1.5 mi Calm Calm - N/A   Partly Cloudy
11:27 PM 39.2 °F - 39.2 °F 100% 30.21 in 3.0 mi Calm Calm - N/A   Scattered Clouds
11:50 PM 39.2 °F - 39.2 °F 100% 30.21 in 2.0 mi Calm Calm - N/A   Mostly Cloudy
11:54 PM 39.9 °F - 39.9 °F 100% 30.21 in 1.5 mi Calm Calm - N/A   Mostly Cloudy
11:59 PM 39.2 °F - 39.2 °F 100% 30.21 in 1.0 mi Calm Calm - N/A   Mist